Satellite: HUBBLE
Catalog number: 20580
Epoch time:      09365.14879106
Element set:     496
Inclination:      028.4713 deg
RA of node:       256.7658 deg
Eccentricity:    0.0003382
Arg of perigee:   213.8468 deg
Mean anomaly:     146.1910 deg
Mean motion:   15.00873205 rev/day
Decay rate:       3.53e-06 rev/day^2
Epoch rev:           87947
Checksum:              313

Satellite: ISS
Catalog number: 25544
Epoch time:      10001.03465100
Element set:     283
Inclination:      051.6468 deg
RA of node:       009.6669 deg
Eccentricity:    0.0007899
Arg of perigee:   132.8806 deg
Mean anomaly:     323.0995 deg
Mean motion:   15.77080624 rev/day
Decay rate:      8.979e-05 rev/day^2
Epoch rev:           63713
Checksum:              313

Satellite: CO-58
Catalog number: 28895
Epoch time:      09364.64643636
Element set:    0477
Inclination:      098.0364 deg
RA of node:       249.4756 deg
Eccentricity:    0.0018906
Arg of perigee:   093.8290 deg
Mean anomaly:     266.5132 deg
Mean motion:   14.59830682 rev/day
Decay rate:       3.27e-06 rev/day^2
Epoch rev:           22239
Checksum:              356

Satellite: FALCON
Catalog number: 30776
Epoch time:      09364.35076221
Element set:    0746
Inclination:      035.4348 deg
RA of node:       349.1235 deg
Eccentricity:    0.0000529
Arg of perigee:   227.6993 deg
Mean anomaly:     132.3678 deg
Mean motion:   15.03410163 rev/day
Decay rate:       4.81e-06 rev/day^2
Epoch rev:           15463
Checksum:              291

Satellite: MAST
Catalog number: 31126
Epoch time:      09364.77760074
Element set:    0766
Inclination:      097.9634 deg
RA of node:       050.2933 deg
Eccentricity:    0.0095151
Arg of perigee:   030.2370 deg
Mean anomaly:     330.4288 deg
Mean motion:   14.53542615 rev/day
Decay rate:       1.03e-06 rev/day^2
Epoch rev:           14359
Checksum:              287

Satellite: CAPE1
Catalog number: 31130
Epoch time:      09365.69888914
Element set:     780
Inclination:      097.9631 deg
RA of node:       048.9196 deg
Eccentricity:    0.0103332
Arg of perigee:   033.9260 deg
Mean anomaly:     326.8474 deg
Mean motion:   14.52120368 rev/day
Decay rate:       1.20e-06 rev/day^2
Epoch rev:           14335
Checksum:              301

Satellite: COMPASS
Catalog number: 32787
Epoch time:      09364.21737937
Element set:    0558
Inclination:      097.9183 deg
RA of node:       066.1305 deg
Eccentricity:    0.0016940
Arg of perigee:   114.6733 deg
Mean anomaly:     245.6255 deg
Mean motion:   14.81726149 rev/day
Decay rate:       5.11e-06 rev/day^2
Epoch rev:           09047
Checksum:              317

Satellite: AAUSAT2
Catalog number: 32788
Epoch time:      09365.72164977
Element set:     550
Inclination:      097.9177 deg
RA of node:       067.7094 deg
Eccentricity:    0.0016335
Arg of perigee:   109.8342 deg
Mean anomaly:     250.4633 deg
Mean motion:   14.81854926 rev/day
Decay rate:      -2.16e-06 rev/day^2
Epoch rev:            9070
Checksum:              330

Satellite: DO-64
Catalog number: 32789
Epoch time:      09365.87631849
Element set:     567
Inclination:      097.9236 deg
RA of node:       068.1711 deg
Eccentricity:    0.0016710
Arg of perigee:   108.4571 deg
Mean anomaly:     251.8488 deg
Mean motion:   14.81907352 rev/day
Decay rate:       4.49e-06 rev/day^2
Epoch rev:            9072
Checksum:              348

Satellite: CO-66
Catalog number: 32791
Epoch time:      09364.21629805
Element set:    0546
Inclination:      097.9186 deg
RA of node:       066.1584 deg
Eccentricity:    0.0016973
Arg of perigee:   111.3393 deg
Mean anomaly:     248.9676 deg
Mean motion:   14.81536965 rev/day
Decay rate:       3.35e-06 rev/day^2
Epoch rev:           09043
Checksum:              348

Satellite: RS-30
Catalog number: 32953
Epoch time:      09364.74535546
Element set:     488
Inclination:      082.5022 deg
RA of node:       134.4184 deg
Eccentricity:    0.0019736
Arg of perigee:   109.9321 deg
Mean anomaly:     250.3887 deg
Mean motion:   12.43003216 rev/day
Decay rate:        1.0e-07 rev/day^2
Epoch rev:            7281
Checksum:              286

Satellite: TACSAT-3
Catalog number: 35001
Epoch time:      09364.85883741
Element set:    0193
Inclination:      040.4544 deg
RA of node:       143.7890 deg
Eccentricity:    0.0022442
Arg of perigee:   188.7667 deg
Mean anomaly:     171.2757 deg
Mean motion:   15.39882732 rev/day
Decay rate:      3.096e-05 rev/day^2
Epoch rev:           03466
Checksum:              325

Satellite: PHARMSAT
Catalog number: 35002
Epoch time:      09364.81459203
Element set:     172
Inclination:      040.4674 deg
RA of node:       142.7862 deg
Eccentricity:    0.0025404
Arg of perigee:   192.4719 deg
Mean anomaly:     167.5470 deg
Mean motion:   15.40582584 rev/day
Decay rate:      3.110e-05 rev/day^2
Epoch rev:            3466
Checksum:              281

Satellite: HAWKSAT1
Catalog number: 35003
Epoch time:      09364.76882664
Element set:    0190
Inclination:      040.4610 deg
RA of node:       141.3592 deg
Eccentricity:    0.0025013
Arg of perigee:   198.1058 deg
Mean anomaly:     161.8868 deg
Mean motion:   15.41908647 rev/day
Decay rate:      6.274e-05 rev/day^2
Epoch rev:           03468
Checksum:              305

